User: anonymous   Login
Location: Unspecified
(0.0000°N, 0.0000°E)
Time: 22:56:29
(UTC+00:00)
Language:

ATS 6 - Orbit

View from above orbital plane
View from above orbital plane
View from above satellite
View from above satellite

Ground track
Ground track

The orbit data is extracted from the following two-line orbital elements,

1 07318U 74039A   18260.50952249 -.00000161  00000-0  00000+0 0  9993
2 07318   8.7212 302.1391 0030788 239.7591 296.7452  1.01979555 93270
Epoch (UTC): 17 September 2018 12:13:42
Eccentricity: 0.0030788
inclination: 8.7212°
perigee height: 35186 km
apogee height: 35442 km
right ascension of ascending node: 302.1391°
argument of perigee: 239.7591°
revolutions per day: 1.01979555
mean anomaly at epoch: 296.7452°
orbit number at epoch: 9327

The dashed part of the orbit path shows where the satellite is in the earth's shadow,  

DLR